Location: Elaine Barite Prospect
(34.1431°N, 106.7922°W)
Time: 12:35:33
(UTC+00:00)

USA 59 Rocket - Pass Details

Date: 13 December 2025
Orbit: 369 x 1675 km, 63.3° (Epoch: 15 January)

Event Time Altitude Azimuth Distance (km) Brightness Sun altitude
Exits shadow 12:14:20 40° 232° (SW) 1,059 0.9 -22.1°
Drops below altitude 10° 12:19:28 10° 173° (S) 2,592 3.5 -21.1°
Sets 12:22:36 0° 167° (SSE) 3,776 4.5 -20.4°
